CW0493 Weather Reports


time (UTC)temp
F
wind
direction
speed
knots
gust
knots
rain 1hr
in
rain 24hr
in
rain mn
in
humidity
%
barometer
mb
20260505122501 47 281 0.0 0.9 0.00 0.00 0.00 96 1013.3
20260505122011 47 281 0.0 0.9 0.00 0.00 0.00 96 1013.3
20260505121558 47 292 0.0 0.9 0.00 0.00 0.00 96 1013.3
20260505121045 47 292 0.0 0.9 0.00 0.00 0.00 96 1013.3
20260505120559 47 292 0.0 0.0 0.00 0.00 0.00 96 1013.3
20260505120048 47 292 0.0 0.9 0.00 0.00 0.00 96 1013.3
20260505115600 47 292 0.0 0.9 0.00 0.00 0.00 96 1013.3
20260505115011 47 292 0.0 0.0 0.00 0.00 0.00 96 1013.3
20260505114539 47 292 0.0 0.0 0.00 0.00 0.00 96 1013.3
20260505114046 47 292 0.0 0.0 0.00 0.00 0.00 96 1013.3
20260505113552 47 292 0.0 0.9 0.00 0.00 0.00 96 1013.2
20260505113022 47 292 0.0 0.0 0.00 0.00 0.00 96 1013.3
20260505112529 47 292 0.0 0.0 0.00 0.00 0.00 96 1013.3
20260505112035 46 292 0.0 0.9 0.00 0.00 0.00 96 1013.3
20260505111530 46 292 0.0 0.9 0.00 0.00 0.00 96 1013.2
20260505111037 46 292 0.0 0.0 0.00 0.00 0.00 96 1013.2
20260505110541 46 292 0.0 0.0 0.00 0.00 0.00 96 1013.1
20260505102047 46 292 0.0 0.0 0.00 0.00 0.00 95 1012.8
20260505101522 46 292 0.0 0.9 0.00 0.00 0.00 95 1012.8
20260505101031 47 292 0.0 0.9 0.00 0.00 0.00 94 1012.7
20260505100536 47 292 0.0 0.9 0.00 0.00 0.00 94 1012.7
20260505100004 48 292 0.0 0.0 0.00 0.00 0.00 95 1012.7
20260505095514 48 292 0.0 0.0 0.00 0.00 0.00 95 1012.8
20260505095016 48 292 0.0 0.0 0.00 0.00 0.00 95 1012.7
20260505094509 48 292 0.0 1.7 0.00 0.00 0.00 95 1012.7
20260505094013 48 292 0.0 1.7 0.00 0.00 0.00 95 1012.7
20260505093521 48 299 0.0 0.0 0.00 0.00 0.00 95 1012.7
20260505093055 48 299 0.0 0.0 0.00 0.00 0.00 95 1012.7
20260505092601 48 299 0.0 0.0 0.00 0.00 0.00 95 1012.7
20260505092010 47 299 0.0 1.7 0.00 0.00 0.00 94 1012.6
20260505091540 48 299 0.0 1.7 0.00 0.00 0.00 94 1012.6
20260505091046 48 299 0.0 0.0 0.00 0.00 0.00 94 1012.6
20260505090549 48 299 0.0 0.9 0.00 0.00 0.00 94 1012.6
20260505090021 48 299 0.0 0.0 0.00 0.00 0.00 94 1012.6
20260505085534 47 5 0.0 0.0 0.00 0.00 0.00 94 1012.5
20260505085038 47 29 0.0 0.0 0.00 0.00 0.00 94 1012.5
20260505084510 47 42 0.0 0.0 0.00 0.00 0.00 94 1012.5
20260505084015 47 42 0.0 0.0 0.00 0.00 0.00 93 1012.5
20260505083525 48 42 0.0 0.0 0.00 0.00 0.00 93 1012.5
20260505083057 48 42 0.0 0.0 0.00 0.00 0.00 93 1012.4
20260505082557 48 42 0.0 0.0 0.00 0.00 0.00 93 1012.4
20260505082011 48 42 0.0 0.0 0.00 0.00 0.00 93 1012.3
20260505081536 48 42 0.0 0.0 0.00 0.00 0.00 93 1012.3
20260505081040 49 42 0.0 0.0 0.00 0.00 0.00 93 1012.2
20260505080543 49 42 0.0 0.0 0.00 0.00 0.00 93 1012.1
20260505080013 49 42 0.0 0.0 0.00 0.00 0.00 93 1012.1
20260505075524 49 42 0.0 0.0 0.00 0.00 0.00 93 1012.1
20260505075031 50 42 0.0 0.0 0.00 0.00 0.00 93 1012.1
20260505074502 50 42 0.0 0.9 0.00 0.00 0.00 93 1012.1
20260505074008 50 43 0.0 0.9 0.00 0.00 0.00 93 1012.1
20260505073520 50 32 0.0 1.7 0.00 0.00 0.00 93 1012.0
20260505073042 50 350 0.0 0.9 0.00 0.00 0.00 93 1012.0
20260505072556 50 350 0.0 0.9 0.00 0.00 0.00 93 1011.9
20260505072055 50 317 0.0 0.9 0.00 0.00 0.00 92 1011.9
20260505071526 50 317 0.0 0.0 0.00 0.00 0.00 91 1011.9
20260505071030 50 309 0.0 0.0 0.00 0.00 0.00 91 1011.8
20260505070540 50 309 0.0 0.0 0.00 0.00 0.00 91 1011.9
20260505070012 50 309 0.0 0.0 0.00 0.00 0.00 90 1011.8
20260505065511 50 309 0.0 0.0 0.00 0.00 0.00 90 1011.8
20260505065021 51 309 0.0 0.0 0.00 0.00 0.00 90 1011.7
20260505064547 51 309 0.0 0.0 0.00 0.00 0.00 90 1011.7
20260505064059 51 309 0.0 0.0 0.00 0.00 0.00 90 1011.8
20260505063511 51 309 0.0 0.0 0.00 0.00 0.00 89 1011.7
20260505063039 52 309 0.0 1.7 0.00 0.00 0.00 89 1011.7
20260505062546 52 309 0.0 1.7 0.00 0.00 0.00 88 1011.7
20260505062047 52 84 0.0 0.0 0.00 0.00 0.00 88 1011.6
20260505061523 52 84 0.0 0.0 0.00 0.00 0.00 88 1011.7
20260505061033 52 84 0.0 0.0 0.00 0.00 0.00 87 1011.7
20260505060541 52 84 0.0 0.0 0.00 0.00 0.00 88 1011.7
20260505060024 53 84 0.0 0.0 0.00 0.00 0.00 87 1011.7
20260505055520 53 67 0.0 0.0 0.00 0.00 0.00 87 1011.7
20260505055030 53 67 0.0 0.0 0.00 0.00 0.00 87 1011.7
20260505054502 53 67 0.0 0.0 0.00 0.00 0.00 87 1011.7
20260505054004 53 67 0.0 0.9 0.00 0.00 0.00 87 1011.6
20260505053515 53 84 0.0 0.9 0.00 0.00 0.00 87 1011.6
20260505053012 54 84 0.0 2.6 0.00 0.00 0.00 87 1011.6
20260505052517 54 98 0.9 3.5 0.00 0.00 0.00 86 1011.5
20260505052027 54 90 0.9 3.5 0.00 0.00 0.00 86 1011.5
20260505051556 54 98 0.0 0.0 0.00 0.00 0.00 86 1011.5
20260505051004 55 98 0.0 0.9 0.00 0.00 0.00 85 1011.5
20260505050517 55 98 0.0 0.0 0.00 0.00 0.00 85 1011.4
20260504151021 52 57 0.9 2.6 0.00 0.00 0.00 93 1011.4
20260504150528 52 92 0.9 2.6 0.00 0.00 0.00 94 1011.4
20260504141038 51 19 0.0 2.6 0.00 0.00 0.00 94 1010.8
20260504140544 51 24 0.9 2.6 0.00 0.00 0.00 94 1010.7
20260504130538 48 319 0.0 0.0 0.00 0.00 0.00 93 1009.9